JCSAT-13

Last updated on Thu Nov 21 2024 00:02:42 GMT+0000 (Coordinated Universal Time)

1 38331U 12023A 24325.57097082 -.00000355 00000+0 00000+0 0 9992 2 38331 0.0178 49.6187 0002577 195.2589 144.7563 1.00269743 45787
UTC large
Height (km)
Speed (km/s)
/
Latitude / Longitude
Inclination (degrees)
Orbital Period (minutes)
Azimuth
Elevation
Range (km)
Doppler Factor

Next 0 passes for location: London (51.5072 / 0.1276)

Sorry there are no passes over London.